Home   Weather   France   Toulouse   Past weeks
Flag for France

Past Weather in Toulouse, Haute-Garonne, France — Yesterday and Last 2 Weeks

Currently: 46 °F. Passing clouds. (Weather station: Toulouse / Blagnac, France). See more current weather

Past Weather in Toulouse — Graph

°F

Toulouse Temperature Yesterday

Maximum temperature yesterday: 46 °F (at 1:30 pm)
Minimum temperature yesterday: 32 °F (at 7:00 am)
Average temperature yesterday: 39 °F

High & Low Weather Summary for the Past Weeks

 TemperatureHumidityPressure
High61 °F (Nov 23, 12:00 pm)100% (Nov 20, 9:00 pm)30.48 "Hg (Nov 20, 9:00 pm)
Low28 °F (Dec 5, 5:30 am)59% (Nov 23, 3:30 pm)29.62 "Hg (Nov 21, 2:00 pm)
Average45 °F89%30.02 "Hg
* Reported Nov 20 11:00 am — Dec 5 11:00 am, Toulouse. Weather by CustomWeather, © 2022

Note: Actual official high and low records may vary slightly from our data, if they occured in-between our weather recording intervals... More about our weather records

Toulouse Weather History for the Previous 24 Hours

Scroll right to see more
 ConditionsComfort  
Time TempWeatherWind HumidityBarometerVisibility
11:00 am
Mon, Dec 5
41 °FSunny.6 mph76%30.07 "Hg10 mi
10:00 am36 °FClear.3 mph100%30.09 "Hg5 mi
9:30 am34 °FFog.2 mph100%30.07 "Hg3 mi
9:00 am32 °FIce fog.2 mph93%30.07 "Hg3 mi
8:30 am30 °FLight fog.No wind93%30.07 "Hg3 mi
8:00 am30 °FIce fog.No wind100%30.07 "Hg3 mi
7:30 am30 °FClear.2 mph93%30.07 "Hg4 mi
7:00 am30 °FPassing clouds.2 mph100%30.04 "Hg4 mi
6:30 am30 °FClear.2 mph100%30.04 "Hg4 mi
6:00 am30 °FLow clouds.5 mph100%30.04 "Hg4 mi
5:30 am28 °FClear.2 mph100%30.04 "Hg4 mi
5:00 am30 °FIce fog.1 mph100%30.04 "Hg3 mi
4:30 am30 °FIce fog.1 mph100%30.04 "Hg3 mi
4:00 am30 °FIce fog.3 mph100%30.04 "Hg3 mi
3:30 am30 °FIce fog.3 mph93%30.04 "Hg3 mi
3:00 am30 °FIce fog.5 mph93%30.01 "Hg3 mi
2:30 am32 °FIce fog.2 mph93%30.01 "Hg3 mi
2:00 am32 °FIce fog.No wind100%30.01 "Hg3 mi
12:30 am34 °FFog.2 mph93%30.01 "Hg2 mi
12:00 am32 °FIce fog.6 mph100%30.01 "Hg2 mi
11:30 pm
Sun, Dec 4
34 °FFog.5 mph93%30.01 "Hg2 mi
11:00 pm36 °FFog.2 mph93%29.98 "Hg2 mi
10:30 pm36 °FFog.3 mph93%29.98 "Hg3 mi
10:00 pm36 °FFog.3 mph93%29.98 "Hg2 mi
9:30 pm36 °FClear.3 mph93%29.98 "Hg4 mi
9:00 pm37 °FFog.2 mph93%29.98 "Hg3 mi
8:30 pm37 °FClear.3 mph93%29.95 "Hg4 mi
8:00 pm37 °FPassing clouds.2 mph93%29.95 "Hg4 mi
7:30 pm37 °FClear.5 mph93%29.95 "Hg10 mi
7:00 pm39 °FClear.5 mph87%29.92 "Hg10 mi
6:30 pm41 °FClear.3 mph87%29.89 "Hg10 mi
6:00 pm41 °FClear.5 mph81%29.92 "Hg10 mi
5:30 pm45 °FClear.2 mph71%29.89 "Hg10 mi
5:00 pm45 °FSunny.3 mph76%29.89 "Hg10 mi
4:30 pm46 °FSunny.3 mph71%29.89 "Hg10 mi
4:00 pm46 °FPassing clouds.6 mph71%29.86 "HgN/A
3:30 pm46 °FPassing clouds.5 mph71%29.86 "HgN/A
3:00 pm46 °FPassing clouds.5 mph71%29.86 "HgN/A
2:30 pm46 °FPassing clouds.6 mph71%29.86 "HgN/A
2:00 pm46 °FPassing clouds.3 mph71%29.86 "HgN/A
1:30 pm46 °FPassing clouds.5 mph76%29.86 "HgN/A
1:00 pm45 °FScattered clouds.3 mph76%29.86 "HgN/A
12:30 pm45 °FPassing clouds.2 mph76%29.86 "HgN/A
12:00 pm43 °FScattered clouds.2 mph76%29.86 "HgN/A
Weather by CustomWeather, © 2022

See weather overview